User: anonymous   Login
Location: Mascot Post Office (historical)
(40.2645°N, 99.5462°W)
Time: 19:45:51
(UTC+00:00)
Language:

Cosmos 1825 - Orbit

View from above orbital plane
View from above orbital plane
View from above satellite
View from above satellite

Ground track
Ground track

The orbit data is extracted from the following two-line orbital elements,

1 17566U 87024A   20269.86182922 +.00000735 +00000-0 +32487-4 0  9996
2 17566 082.5078 182.2941 0004393 026.5798 333.5661 15.20145747835278
Epoch (UTC): 25 September 2020 20:41:02
Eccentricity: 0.0004393
inclination: 82.5078°
perigee height: 502 km
apogee height: 508 km
right ascension of ascending node: 182.2941°
argument of perigee: 26.5798°
revolutions per day: 15.20145747
mean anomaly at epoch: 333.5661°
orbit number at epoch: 83527

The dashed part of the orbit path shows where the satellite is in the earth's shadow,  

DLR